Wetbulb
59.29 59.08 60.90 61.71 61.64 62.04 62.70 62.37 63.12 63.33 63.17 63.16 63.20 62.46 61.50 61.01 60.68 54.99 50.50 58.53 58.40 61.01 59.43 52.19 51.95 50.85 51.38 49.84 50.31 47.89 41.34 36.30 39.23 40.07 40.74 43.27 43.79 43.67 44.23 45.17 46.00 48.47 54.49 56.15 59.43
59.21 58.78 58.59 61.66 61.07 61.30 62.22 62.48 63.01 62.94 62.78 62.87 62.58 61.93 61.18 59.92 50.80 48.62 55.62 61.56 63.72 61.09 51.46 49.94 48.69 49.54 47.19 47.66 47.38 44.15 40.77 40.53 43.02 42.65 41.34 43.39 43.64 44.02 43.64 44.02 47.57 50.84 55.62 58.53 60.77
58.21 58.81 58.29 61.52 60.70 61.08 61.99 62.49 62.54 62.44 62.69 62.02 61.43 60.90 59.91 55.16 46.55 48.52 59.79 62.01 63.35 60.22 51.99 50.48 50.38 48.75 46.16 46.87 44.61 42.71 40.98 44.04 41.87 44.47 44.40 44.08 43.65 42.40 42.99 40.40 47.72 51.01 54.96 57.32 59.20
58.28 58.75 58.66 60.89 60.43 60.72 61.63 62.16 62.10 62.12 62.22 61.33 60.80 60.16 59.03 48.95 38.98 49.34 60.92 61.58 62.93 56.02 51.37 50.09 47.38 45.34 44.39 43.66 46.41 41.56 44.67 44.71 44.15 44.74 43.41 43.45 44.97 42.24 42.70 43.82 46.15 54.64 58.14 57.67 58.14
57.69 58.31 57.60 60.23 59.98 60.28 60.91 61.49 61.87 61.48 61.52 60.97 60.52 59.59 51.04 42.43 44.14 50.67 60.83 61.37 59.18 51.63 50.29 49.30 46.18 45.57 41.90 44.09 45.02 42.43 42.88 44.29 43.97 43.35 43.46 44.38 42.70 42.40 42.15 42.48 50.28 56.93 57.64 57.81 57.90
57.43 57.69 57.33 59.35 59.27 60.02 60.59 61.06 61.61 61.57 61.14 60.51 60.73 57.78 45.59 40.54 50.66 52.48 56.65 56.90 54.87 50.18 48.86 53.23 48.91 48.28 45.17 43.45 42.98 44.16 44.29 42.63 42.95 42.87 43.59 42.57 41.31 42.31 43.13 44.31 54.70 56.70 56.41 57.41 57.96
56.86 57.08 57.21 58.80 59.00 59.52 60.13 60.70 61.32 61.33 60.61 60.70 60.46 52.36 44.23 44.68 50.55 53.08 56.03 53.69 53.31 49.94 46.84 51.88 52.41 49.59 46.71 43.58 44.37 43.16 41.05 41.20 39.57 41.36 42.01 43.11 38.44 40.77 41.73 45.57 53.07 55.51 55.98 56.48 57.63
56.31 56.77 57.80 58.23 58.52 59.27 59.95 60.65 60.69 60.62 60.26 60.46 59.02 49.46 42.46 50.70 52.51 52.83 53.74 52.22 52.26 50.01 49.82 50.74 52.24 48.79 47.63 46.77 44.16 39.91 39.14 35.66 37.91 40.59 40.14 41.42 36.74 42.70 41.73 45.50 49.06 52.18 52.54 54.16 55.84
56.10 56.53 57.32 57.87 58.17 58.75 59.58 60.15 59.65 60.22 60.45 59.63 51.91 47.40 42.08 52.47 47.89 51.49 51.78 49.69 50.84 49.49 50.32 50.91 48.97 44.86 43.49 41.18 38.79 39.76 31.80 32.70 36.76 39.92 38.46 39.02 37.39 40.94 42.43 43.49 44.08 47.76 51.05 53.14 54.55
55.96 56.43 57.45 57.68 57.87 58.45 59.29 59.70 59.74 59.44 57.14 54.34 52.36 43.80 44.98 43.08 47.45 50.37 49.29 49.43 46.22 47.31 45.76 46.05 44.46 41.41 39.42 39.60 35.12 37.10 33.01 33.13 34.12 37.24 36.92 36.11 37.89 38.80 39.65 40.20 43.00 44.54 46.13 48.51 51.08
56.01 56.47 57.48 57.46 57.77 58.78 58.76 56.98 51.77 49.52 49.48 43.84 44.60 41.30 43.03 45.74 49.16 47.13 47.92 47.29 46.50 43.16 37.24 42.70 36.82 35.02 38.39 38.74 38.63 37.67 35.75 33.26 35.85 38.30 36.30 35.92 38.29 40.74 39.96 37.33 38.33 39.96 39.86 40.26 44.60
55.96 57.33 57.24 57.40 58.05 58.84 57.81 51.94 49.64 49.95 42.02 44.74 47.19 43.05 44.97 46.25 42.12 45.36 47.25 41.56 40.07 34.68 39.09 37.21 35.39 38.77 40.94 40.58 38.59 36.85 34.91 33.39 35.38 37.18 36.35 33.97 36.35 38.48 37.80 38.79 39.74 40.07 39.25 39.63 39.72
55.84 56.81 56.89 57.15 58.08 57.39 54.99 52.20 54.42 51.75 40.38 41.54 45.31 42.00 42.99 44.41 40.22 42.29 45.18 40.54 36.88 34.26 36.12 33.79 35.95 41.46 41.51 38.63 36.72 35.72 34.30 31.99 34.00 34.99 34.96 32.40 34.51 34.76 37.34 38.78 38.84 39.87 39.85 39.56 41.11
56.20 56.48 56.47 57.37 54.81 55.05 49.47 52.36 54.00 48.42 32.92 35.08 39.38 42.33 43.94 43.24 38.18 44.44 45.04 41.82 36.36 34.75 34.92 36.05 40.98 39.44 39.06 38.30 37.88 34.24 36.70 36.72 34.24 32.98 29.18 32.14 29.28 31.68 34.19 36.59 37.46 40.72 39.04 41.01 39.92
56.25 56.19 56.56 57.17 53.40 50.95 50.04 53.55 49.30 45.48 22.97 36.60 38.16 45.43 43.93 40.40 40.41 40.17 43.76 40.34 35.25 34.54 34.72 32.70 33.98 37.10 36.07 36.92 38.74 35.35 37.98 36.89 34.37 31.45 29.46 28.56 25.82 31.16 29.31 32.64 35.23 38.43 39.75 42.44 39.93
56.04 55.86 56.39 54.67 53.86 51.16 51.80 50.88 46.25 31.82 22.01 32.53 37.85 36.98 37.26 37.37 37.11 39.16 40.80 40.87 39.64 35.81 34.35 35.09 35.50 38.49 38.29 39.20 39.53 38.97 36.82 34.92 32.34 30.23 24.68 29.03 28.24 27.82 29.58 33.71 35.47 36.21 38.06 38.98 38.77
55.69 55.65 54.97 54.15 49.36 50.30 50.88 45.21 31.19 21.31 33.70 29.49 32.17 36.50 35.39 32.75 34.21 35.30 36.56 33.50 31.49 28.19 28.91 30.65 31.16 33.61 36.64 34.39 37.11 36.28 33.98 24.61 23.81 23.98 23.04 24.26 25.02 34.09 33.95 34.00 35.49 37.02 37.35 36.38 37.35
55.42 55.39 53.48 52.89 51.12 50.53 47.41 36.87 16.66 28.00 30.11 33.68 34.80 35.70 30.98 33.86 31.57 32.26 34.17 33.04 33.13 30.82 28.26 27.91 25.93 32.46 34.60 33.76 32.67 32.68 31.97 25.15 18.90 19.14 22.89 25.76 24.36 30.59 35.73 35.01 36.29 36.79 36.15 37.23 37.68
55.34 53.39 51.21 50.91 51.08 49.99 40.85 28.95 25.70 30.56 32.98 32.76 33.51 30.92 28.61 32.59 31.87 31.51 31.96 34.00 34.63 32.34 28.83 27.44 27.26 32.93 33.57 34.08 35.86 31.13 31.20 33.26 26.01 21.37 23.94 26.07 27.92 34.19 34.95 35.77 37.25 37.20 37.08 37.55 38.07
52.32 49.64 48.81 51.19 51.63 46.13 36.39 29.44 29.49 34.46 35.85 36.26 29.25 30.44 28.07 30.62 28.68 28.62 30.08 35.35 34.32 34.96 32.79 31.58 27.02 31.58 32.06 33.46 33.19 33.57 36.25 29.73 28.16 18.87 17.59 23.90 23.87 27.83 31.47 35.76 36.22 36.88 36.88 37.39 38.06
50.49 45.19 49.27 51.23 50.33 40.75 31.33 29.70 32.24 36.69 38.72 33.76 30.30 28.50 30.06 30.49 28.96 28.41 29.54 31.85 36.65 33.32 33.27 32.22 30.47 27.77 31.58 30.28 29.58 29.83 29.56 29.58 31.05 27.69 22.31 19.05 25.98 32.10 35.71 35.31 35.95 37.64 38.19 38.17 38.71
48.06 39.53 49.32 50.35 38.84 37.43 32.96 32.54 38.27 35.94 36.62 35.30 34.31 31.96 31.80 32.05 28.47 28.33 28.03 32.41 37.28 35.29 31.84 32.33 30.19 24.44 27.41 31.17 32.48 30.85 32.28 33.83 28.63 25.27 25.30 25.67 29.10 33.17 34.15 35.91 36.19 37.54 38.74 38.50 38.61
43.64 42.18 49.25 47.98 33.20 34.39 34.85 33.63 36.34 36.25 36.34 34.33 33.01 34.38 34.48 32.50 28.91 31.41 31.73 35.54 36.70 37.40 34.16 34.94 27.30 19.55 26.64 29.43 30.96 29.11 30.52 31.75 29.98 28.56 25.22 25.53 28.44 33.65 35.13 35.85 36.77 36.46 37.58 38.46 38.86
39.60 36.42 41.95 44.13 39.04 37.17 34.17 33.10 32.94 37.33 37.22 36.74 34.62 35.19 33.82 32.61 33.03 31.36 32.59 36.71 37.41 38.09 40.83 39.63 30.72 27.27 25.65 26.97 30.91 28.25 29.52 30.59 31.22 25.97 25.22 26.73 28.96 33.46 34.65 35.54 36.99 35.86 36.72 38.41 38.83
39.50 38.86 40.43 35.05 36.30 37.39 36.43 34.52 32.21 33.29 36.55 37.83 33.43 34.67 33.06 29.01 30.08 30.66 34.35 35.70 37.46 39.71 38.15 36.55 25.57 27.45 29.05 29.12 29.67 29.02 31.60 31.71 31.20 33.99 29.87 33.27 30.62 35.38 34.98 36.60 37.80 37.65 37.50 38.10 38.40
36.05 39.63 40.57 38.87 38.22 36.72 36.36 31.81 32.38 34.81 35.48 33.42 32.69 34.51 34.18 31.15 32.86 30.29 33.49 33.55 33.86 34.79 36.46 33.68 23.05 27.76 24.59 29.58 29.73 28.69 31.41 33.92 33.69 33.71 33.48 29.73 29.98 34.41 36.27 37.59 38.08 38.60 38.18 38.43 39.23
38.05 39.76 42.21 39.01 35.68 35.17 33.73 33.72 34.01 36.41 36.12 37.47 36.26 35.30 33.69 35.09 36.85 38.10 37.59 37.49 36.71 35.23 34.28 33.51 26.22 25.62 21.18 27.62 28.16 24.32 28.72 30.35 32.01 34.85 33.67 29.81 35.97 35.18 34.77 36.41 37.66 38.75 39.08 39.58 40.18
MSLP
1007.68 1008.13 1008.53 1008.86 1009.33 1010.03 1010.63 1011.14 1012.02 1012.67 1013.16 1013.87 1014.42 1015.10 1015.53 1016.09 1016.36 1016.72 1016.46 1015.58 1015.58 1015.46 1015.56 1015.48 1015.26 1015.16 1014.87 1015.34 1015.91 1016.45 1017.51 1017.87 1017.52 1017.20 1016.43 1016.16 1016.27 1016.38 1016.58 1017.09 1017.52 1017.57 1017.96 1018.17 1019.01
1007.03 1007.27 1008.07 1008.38 1008.77 1009.41 1010.05 1010.71 1011.61 1012.39 1012.90 1013.69 1014.42 1014.76 1015.51 1015.91 1016.37 1016.05 1015.04 1015.28 1015.34 1015.34 1015.76 1015.65 1015.44 1015.41 1015.63 1015.96 1016.34 1016.54 1016.99 1017.08 1016.62 1016.38 1016.26 1016.18 1016.16 1016.41 1016.86 1017.35 1017.72 1017.91 1018.08 1018.38 1019.23
1006.18 1006.45 1007.42 1007.47 1008.03 1008.84 1009.47 1010.28 1011.14 1011.98 1012.86 1013.48 1014.23 1014.85 1015.41 1015.96 1016.47 1014.99 1014.19 1014.79 1014.91 1015.37 1015.48 1015.44 1015.60 1015.83 1016.13 1016.15 1016.45 1016.37 1016.71 1016.36 1016.23 1015.96 1016.04 1016.28 1016.29 1016.35 1016.83 1017.49 1017.26 1017.61 1018.25 1018.70 1019.37
1005.90 1006.10 1006.72 1006.57 1007.33 1008.24 1008.97 1009.71 1010.65 1011.73 1012.59 1013.38 1013.98 1014.75 1015.36 1015.90 1015.56 1013.55 1013.56 1014.24 1014.71 1015.39 1015.46 1015.65 1015.99 1016.21 1016.37 1016.48 1016.26 1016.32 1016.39 1016.24 1015.93 1015.77 1015.92 1016.06 1015.83 1016.30 1016.57 1016.37 1016.22 1016.94 1017.20 1018.21 1019.14
1005.04 1005.65 1005.73 1005.71 1006.58 1007.54 1008.35 1009.19 1010.24 1011.32 1012.25 1013.23 1013.84 1014.73 1015.48 1015.85 1014.59 1013.28 1013.64 1014.17 1014.87 1015.43 1015.48 1015.60 1015.81 1016.23 1016.45 1016.28 1016.21 1016.15 1016.19 1016.06 1015.68 1015.57 1015.58 1015.87 1015.96 1016.04 1016.37 1016.32 1016.60 1017.22 1018.04 1018.17 1018.71
1004.39 1004.64 1004.90 1004.88 1005.87 1006.93 1007.77 1008.57 1009.97 1010.91 1011.95 1012.99 1013.64 1014.39 1014.92 1015.06 1013.45 1013.31 1013.80 1014.61 1014.75 1015.41 1015.50 1015.65 1015.77 1016.14 1016.51 1016.64 1016.29 1015.99 1016.04 1016.19 1015.99 1015.55 1015.74 1016.05 1016.14 1016.37 1016.21 1016.65 1017.22 1017.56 1018.21 1018.29 1018.45
1003.75 1004.11 1004.38 1004.00 1005.21 1006.40 1007.25 1008.33 1009.75 1010.69 1011.79 1012.74 1013.52 1013.98 1014.53 1013.74 1013.50 1013.48 1013.64 1014.58 1014.82 1015.32 1015.45 1015.55 1015.73 1016.26 1016.78 1016.93 1016.73 1016.44 1016.44 1016.42 1015.97 1016.06 1016.12 1016.12 1016.55 1016.58 1016.54 1016.73 1017.49 1017.89 1018.30 1018.64 1018.56
1003.01 1003.36 1003.08 1003.46 1004.72 1005.93 1006.78 1008.25 1009.51 1010.48 1011.65 1012.62 1013.44 1014.06 1014.12 1013.44 1013.36 1013.74 1013.78 1014.98 1015.24 1015.34 1015.29 1015.25 1015.66 1016.59 1016.92 1017.44 1017.24 1017.06 1016.86 1016.98 1016.40 1016.71 1016.45 1016.46 1016.61 1016.34 1016.85 1017.15 1017.60 1018.10 1018.33 1018.61 1018.74
1002.07 1002.45 1002.68 1002.99 1004.21 1005.41 1006.67 1008.09 1009.57 1010.88 1011.79 1012.83 1013.70 1013.70 1013.95 1013.41 1013.50 1013.61 1014.08 1014.71 1015.54 1015.56 1015.34 1015.30 1015.83 1016.70 1017.35 1018.21 1018.84 1018.12 1017.46 1017.32 1016.95 1017.01 1016.97 1016.78 1016.90 1016.25 1016.79 1017.54 1017.95 1017.95 1018.33 1018.33 1018.54
1001.46 1001.88 1002.31 1002.79 1003.78 1005.14 1006.63 1007.92 1009.77 1011.37 1011.81 1012.64 1013.41 1013.79 1013.68 1013.05 1013.36 1013.64 1014.26 1014.69 1015.48 1015.63 1015.90 1016.02 1016.41 1017.06 1017.71 1018.24 1018.01 1018.01 1018.28 1017.55 1017.10 1017.32 1017.48 1017.26 1016.74 1016.66 1016.93 1017.53 1017.96 1018.10 1018.19 1018.16 1018.21
1000.77 1001.16 1001.00 1002.51 1003.47 1004.66 1006.64 1007.84 1009.72 1010.75 1011.28 1010.83 1011.27 1012.34 1012.28 1012.92 1013.15 1013.87 1014.22 1014.92 1015.59 1015.98 1016.42 1016.35 1016.76 1016.20 1017.37 1017.94 1018.09 1018.01 1018.12 1017.75 1017.21 1017.03 1017.84 1017.60 1017.00 1016.65 1016.94 1017.68 1017.88 1018.10 1018.40 1018.35 1017.94
999.54 999.60 1000.60 1002.01 1003.03 1004.29 1005.70 1005.96 1006.52 1007.57 1011.03 1011.59 1011.76 1012.12 1012.03 1012.09 1013.35 1014.05 1014.12 1015.07 1015.91 1016.57 1016.70 1017.26 1016.36 1017.25 1017.90 1017.89 1018.29 1018.24 1018.04 1017.94 1017.62 1017.30 1017.88 1017.77 1017.50 1017.00 1017.29 1017.18 1017.07 1017.25 1017.94 1017.89 1017.63
998.88 999.28 1000.45 1001.73 1002.74 1004.46 1004.86 1005.41 1006.55 1007.78 1009.89 1011.49 1012.04 1012.08 1011.86 1012.21 1013.32 1013.78 1014.19 1014.89 1016.11 1017.03 1016.82 1017.09 1017.23 1017.38 1018.14 1017.97 1018.21 1018.27 1018.20 1017.90 1018.14 1018.00 1017.99 1018.31 1018.21 1017.51 1016.90 1016.78 1016.77 1016.97 1017.06 1017.53 1017.45
997.80 998.55 1000.12 1001.29 1003.11 1003.66 1004.82 1005.67 1006.00 1006.34 1009.43 1011.71 1012.00 1011.74 1011.80 1012.16 1013.51 1013.72 1013.98 1014.80 1016.07 1016.91 1017.66 1017.64 1017.36 1017.46 1018.00 1017.68 1017.97 1017.97 1017.99 1017.90 1018.33 1018.46 1018.52 1018.63 1017.86 1017.49 1016.81 1016.59 1016.47 1016.30 1016.48 1016.55 1016.89
997.14 998.14 999.49 1000.43 1000.47 1002.63 1004.00 1005.00 1005.77 1006.53 1009.33 1011.00 1011.88 1011.44 1011.75 1012.36 1013.15 1014.15 1013.97 1014.49 1015.49 1016.37 1017.36 1017.16 1017.38 1017.57 1017.69 1016.93 1017.71 1017.68 1018.05 1018.42 1018.59 1018.87 1019.10 1019.27 1019.30 1016.61 1016.88 1016.62 1016.08 1015.70 1015.86 1015.66 1016.05
996.25 997.64 999.35 1000.83 1001.74 1002.63 1003.98 1004.51 1005.75 1007.37 1009.21 1010.47 1010.80 1011.70 1012.39 1012.92 1013.39 1013.90 1014.01 1014.26 1015.11 1016.31 1016.92 1016.92 1016.75 1016.93 1016.69 1017.11 1017.46 1017.81 1018.38 1019.04 1019.32 1019.69 1019.98 1018.86 1019.15 1017.23 1016.62 1015.80 1015.41 1014.81 1014.75 1015.13 1015.94
995.96 997.76 999.19 999.85 1000.51 1001.90 1003.35 1004.58 1007.46 1008.33 1008.95 1010.47 1010.49 1011.33 1012.34 1013.23 1013.74 1013.69 1014.00 1014.54 1015.00 1015.99 1016.74 1016.97 1016.82 1016.57 1016.40 1016.98 1017.25 1017.60 1018.85 1019.85 1020.57 1020.59 1019.81 1019.14 1019.25 1016.63 1015.41 1015.03 1014.96 1014.77 1014.72 1015.04 1015.64
995.95 997.86 998.98 999.86 1000.87 1001.94 1003.24 1005.31 1007.34 1006.94 1008.48 1009.01 1009.78 1011.45 1012.60 1013.11 1013.99 1014.05 1014.41 1014.98 1014.98 1015.20 1016.39 1016.95 1017.08 1016.40 1015.79 1015.60 1015.82 1016.91 1017.49 1018.19 1019.32 1020.31 1020.10 1019.75 1018.27 1015.65 1014.69 1014.65 1014.75 1014.79 1014.98 1015.37 1016.29
995.88 997.77 998.85 999.90 1000.71 1001.76 1003.48 1004.97 1004.45 1005.69 1007.53 1008.37 1010.09 1011.32 1012.52 1012.80 1013.03 1013.88 1013.93 1013.68 1014.12 1014.35 1014.92 1015.80 1016.28 1016.22 1015.96 1015.75 1015.40 1016.74 1016.99 1017.25 1018.87 1020.57 1020.01 1018.85 1017.34 1015.41 1014.42 1014.46 1014.71 1014.93 1015.60 1016.06 1016.79
995.02 997.09 998.71 1000.07 1000.71 1002.29 1003.53 1003.63 1004.78 1005.12 1006.33 1007.19 1007.99 1009.54 1010.98 1011.99 1012.70 1012.99 1013.44 1012.91 1013.30 1013.40 1013.52 1014.44 1016.04 1016.44 1016.30 1015.84 1015.40 1015.34 1016.34 1017.40 1017.99 1019.46 1019.49 1018.18 1017.31 1015.29 1014.47 1014.24 1014.11 1014.98 1015.44 1016.31 1017.26
994.98 997.06 998.99 999.90 1000.80 1002.76 1002.67 1003.95 1004.43 1004.84 1004.91 1005.88 1006.91 1008.46 1009.45 1010.66 1011.66 1012.29 1012.15 1012.15 1012.67 1013.29 1013.71 1014.16 1014.79 1016.99 1016.80 1015.81 1015.22 1015.83 1015.76 1016.31 1017.10 1018.12 1018.09 1017.87 1015.93 1014.01 1013.32 1013.27 1013.87 1014.66 1015.36 1016.12 1017.09
994.10 996.42 998.45 999.32 1000.98 1002.06 1002.81 1003.43 1003.94 1004.60 1004.62 1005.13 1005.98 1007.11 1008.25 1009.84 1011.10 1011.81 1011.67 1011.03 1011.42 1012.20 1013.37 1013.88 1014.96 1016.70 1016.57 1015.88 1015.42 1015.40 1015.24 1015.64 1016.70 1017.40 1017.60 1016.82 1014.23 1013.20 1013.12 1012.91 1013.36 1013.96 1014.97 1016.00 1017.10
993.85 996.45 998.64 998.63 999.04 1001.17 1002.89 1003.51 1003.71 1004.30 1004.52 1005.01 1005.77 1006.28 1007.22 1008.99 1010.74 1011.04 1010.96 1010.74 1010.71 1011.19 1011.70 1013.11 1014.65 1016.75 1017.07 1016.43 1015.95 1015.73 1015.25 1015.03 1015.41 1016.05 1016.32 1016.12 1013.60 1013.23 1013.28 1013.19 1013.52 1014.03 1014.68 1015.79 1017.15
994.13 995.48 997.62 998.76 999.18 1000.30 1001.67 1003.06 1003.81 1003.95 1004.22 1004.37 1004.94 1005.69 1007.11 1008.59 1009.06 1010.26 1010.77 1010.85 1010.90 1011.07 1011.30 1012.07 1014.04 1015.25 1015.18 1014.35 1015.23 1015.95 1015.47 1015.24 1015.16 1015.92 1015.40 1014.27 1013.66 1013.09 1013.10 1013.36 1013.63 1014.17 1014.83 1015.73 1016.69
993.88 993.89 993.89 996.89 999.07 999.67 1001.29 1002.45 1003.58 1003.89 1003.89 1004.01 1004.99 1005.03 1006.19 1008.01 1009.00 1009.44 1010.15 1010.91 1011.12 1011.07 1011.66 1011.98 1014.11 1015.23 1015.08 1014.83 1014.62 1014.42 1014.24 1014.47 1014.70 1013.79 1014.04 1012.68 1013.23 1012.48 1012.48 1013.05 1013.49 1013.98 1015.05 1015.86 1016.56
994.15 993.72 995.13 995.89 998.89 999.63 1000.73 1001.52 1002.49 1003.35 1003.92 1004.19 1004.22 1005.17 1005.61 1006.33 1006.88 1008.30 1008.72 1009.57 1010.03 1011.33 1011.50 1012.66 1014.34 1015.09 1016.15 1015.55 1015.20 1014.73 1014.12 1013.70 1012.62 1012.86 1012.49 1012.68 1012.21 1011.75 1012.03 1012.42 1013.24 1013.95 1014.79 1015.47 1015.85
993.75 993.37 993.71 995.60 997.93 999.02 998.55 1000.58 1002.01 1002.66 1004.27 1003.94 1004.42 1005.35 1006.17 1006.52 1006.54 1007.40 1008.19 1009.05 1009.55 1010.52 1011.69 1012.90 1014.28 1015.74 1016.92 1016.35 1015.68 1015.08 1012.90 1012.97 1012.88 1011.97 1012.19 1011.91 1011.41 1011.90 1012.34 1012.60 1012.96 1013.88 1014.25 1014.57 1014.88
Wind_Speed
25 23 22 28 27 24 23 23 20 18 19 16 16 15 14 10 9 4 7 6 7 7 2 2 2 2 2 4 4 4 4 3 6 6 4 4 4 2 2 7 1 2 7 4 16
24 22 22 30 29 27 24 24 22 21 19 18 16 16 14 12 3 5 6 11 13 7 4 4 5 3 3 4 2 4 4 8 6 5 4 4 4 7 5 3 1 1 4 14 17
23 24 23 32 30 27 26 25 24 23 20 20 18 18 17 9 3 9 18 11 12 9 3 3 3 3 2 3 4 4 5 4 3 4 5 5 5 3 8 4 6 10 10 16 16
25 26 23 31 30 29 27 25 26 23 22 21 20 18 16 3 9 3 14 16 11 7 5 5 4 2 5 5 4 5 5 5 4 2 3 6 7 6 6 7 7 11 21 17 17
24 26 23 31 30 29 27 26 28 27 24 22 21 19 8 3 9 3 10 15 8 7 6 6 6 5 4 5 5 4 2 5 4 2 2 6 4 6 6 1 6 11 10 17 17
21 25 22 32 30 28 27 27 29 26 25 24 22 16 7 4 4 2 10 9 7 6 7 5 5 4 4 2 5 6 5 2 5 4 2 4 2 4 6 5 8 13 12 13 17
19 22 23 31 30 28 26 27 29 27 26 26 23 5 5 10 2 6 10 6 7 6 7 5 4 4 3 1 7 2 6 3 1 2 2 5 1 7 2 8 11 11 10 8 10
18 22 28 31 30 28 28 28 26 26 26 24 18 3 5 1 5 8 9 5 5 3 5 6 8 5 5 3 7 2 3 5 2 4 2 6 8 7 5 9 12 10 8 8 10
19 23 21 30 29 28 31 28 26 24 26 21 5 5 4 4 4 6 6 10 6 1 1 4 6 5 4 6 5 4 4 3 4 3 2 4 7 5 7 6 9 10 11 11 10
21 26 27 29 29 31 33 29 29 27 19 10 3 6 4 7 5 8 3 10 4 6 5 4 4 5 2 9 15 8 4 3 6 3 2 5 8 5 4 8 11 8 10 9 11
24 26 32 29 30 34 30 19 16 11 16 7 11 3 7 5 4 4 7 7 4 3 6 5 6 17 17 6 1 7 8 4 5 6 3 7 7 11 4 4 6 8 8 9 12
25 32 30 32 33 37 25 16 28 12 11 5 17 1 3 5 7 6 8 8 6 6 7 3 17 7 6 2 2 3 5 7 2 2 4 1 10 10 3 7 10 10 8 12 6
32 31 31 33 36 27 22 17 18 24 7 3 7 2 5 5 4 10 11 5 7 6 8 5 4 8 6 4 7 4 5 4 3 2 3 2 7 7 6 6 4 7 9 6 11
35 38 34 35 28 22 10 17 25 7 6 4 5 5 3 8 4 4 7 8 4 10 6 3 3 14 12 16 8 10 6 4 4 4 4 3 10 7 7 9 7 13 9 13 11
36 37 39 38 20 20 17 22 9 6 7 12 5 1 6 9 13 5 2 4 10 6 9 8 11 12 15 8 8 6 5 6 3 3 2 2 1 8 1 7 9 15 15 17 10
36 37 41 14 10 15 19 16 6 5 6 9 10 10 9 4 2 5 6 3 5 6 3 8 3 12 13 9 10 7 5 4 4 3 3 8 8 6 7 9 7 7 12 12 10
36 37 32 13 16 18 18 11 7 6 10 9 9 12 10 5 5 6 16 7 8 9 9 3 3 2 6 6 4 8 11 2 1 2 8 1 4 12 6 8 7 8 10 8 8
37 37 16 7 17 21 14 11 6 7 14 3 10 18 9 8 2 3 14 14 7 5 7 11 9 9 4 7 9 8 8 7 9 5 2 2 8 9 8 3 7 7 3 4 6
39 14 12 16 17 15 17 16 11 17 9 11 13 20 6 7 9 8 12 20 11 11 9 9 7 2 2 2 9 5 10 4 7 2 3 5 7 10 6 9 7 7 5 8 8
18 12 13 21 18 14 15 8 5 6 12 20 11 9 16 18 7 9 14 14 10 10 3 7 6 1 2 2 1 9 10 4 2 5 3 3 5 6 5 12 9 8 9 7 6
10 14 13 18 14 14 21 9 5 5 19 9 8 9 9 16 8 12 17 3 13 9 3 6 6 2 2 6 9 3 4 2 5 5 6 2 7 10 15 7 9 9 9 9 8
11 9 15 17 17 13 19 10 5 8 2 6 7 6 13 18 6 10 15 8 14 11 8 2 7 4 7 2 2 1 7 10 7 8 1 4 10 2 7 5 7 7 7 6 6
14 6 13 21 18 20 10 7 4 7 6 8 6 5 7 13 6 4 7 3 10 17 14 9 1 5 4 4 1 4 4 4 5 4 8 8 8 1 5 5 4 7 8 7 7
6 10 10 14 2 22 20 22 5 0 5 4 8 7 11 10 2 10 7 4 8 8 8 9 5 9 13 5 10 5 5 4 5 4 4 9 4 7 5 5 4 2 5 8 9
1 10 11 22 17 27 24 23 7 9 2 6 2 14 12 7 5 8 6 5 2 7 6 6 7 4 2 2 3 5 11 10 8 18 11 16 9 13 5 7 6 3 5 7 8
5 15 7 18 16 27 26 21 12 5 7 4 10 15 8 10 10 8 9 5 9 1 15 2 3 4 1 3 2 1 7 17 24 16 19 4 8 3 3 5 5 8 8 9 11
1 2 14 28 22 23 28 23 15 14 3 5 13 8 5 5 7 8 4 7 11 11 15 13 8 5 5 1 3 6 11 13 12 15 13 15 15 6 5 8 8 9 11 12 12
Wind_Direction
222 226 234 202 192 191 190 186 197 177 174 172 166 167 167 171 142 148 213 209 192 221 259 265 55 336 3 73 82 129 82 195 204 156 240 164 147 180 83 124 347 116 151 183 132
222 215 225 214 193 193 190 186 188 177 175 169 167 157 156 140 107 237 239 214 204 172 204 187 152 111 60 125 189 124 144 210 192 194 216 196 163 171 127 137 62 73 46 126 136
229 224 227 209 192 189 187 186 180 175 172 165 162 159 148 143 77 239 195 206 189 172 206 118 131 92 113 123 215 171 186 185 241 221 205 191 172 184 132 235 207 183 149 146 152
224 219 227 206 190 187 187 182 176 167 169 165 158 159 147 101 183 225 178 192 181 163 132 121 116 136 141 183 206 124 237 193 200 202 135 187 139 177 183 218 184 175 162 152 166
230 220 241 197 187 186 186 180 173 171 163 166 156 152 121 200 249 244 179 171 139 145 171 142 147 148 189 194 126 155 260 197 260 116 186 150 197 185 216 132 119 125 162 168 172
237 215 248 188 183 185 183 176 175 165 160 162 155 153 110 193 241 153 134 134 140 139 166 167 151 163 106 242 162 192 184 245 274 125 123 185 176 139 229 130 134 149 179 181 185
239 223 241 182 178 181 175 172 174 160 161 162 157 148 105 211 346 155 128 152 141 146 137 173 132 68 98 137 333 110 168 314 211 260 183 131 314 233 214 149 161 174 184 196 202
243 219 218 178 175 173 164 164 158 151 159 156 151 118 199 253 118 114 120 95 147 164 139 136 142 107 96 319 2 177 92 191 288 172 107 122 244 248 191 153 175 188 187 203 216
230 214 224 176 170 163 159 153 149 152 150 152 118 132 238 114 130 135 118 134 149 160 96 119 111 135 96 87 358 315 199 158 314 221 126 158 236 245 177 198 197 195 200 204 222
230 212 201 179 166 159 151 146 145 148 138 126 92 80 219 195 152 131 106 127 133 131 90 120 106 134 143 161 217 212 240 198 183 209 279 186 244 279 197 182 214 211 210 209 216
218 217 173 183 167 155 142 143 159 153 169 169 166 199 138 143 106 110 129 106 88 127 164 187 146 196 184 160 266 183 199 210 198 147 214 218 239 241 191 206 236 228 232 234 225
213 181 172 181 165 154 157 169 158 141 139 78 160 89 139 143 112 141 129 134 147 171 143 141 215 156 148 151 231 244 195 199 340 84 147 110 261 267 229 227 210 211 231 232 232
198 176 175 176 153 154 169 160 135 132 111 82 164 165 162 107 114 172 144 116 119 136 196 174 172 141 211 206 226 211 202 176 153 143 109 85 277 253 241 242 224 233 224 232 229
184 169 172 160 152 160 158 168 146 134 96 155 153 258 131 128 87 165 160 139 129 172 120 226 215 173 195 225 196 225 199 170 139 126 199 139 255 256 235 239 225 237 230 232 225
180 167 167 164 143 174 148 162 133 75 146 153 164 103 145 162 136 238 185 81 149 155 137 216 170 180 210 193 178 202 176 187 172 141 109 168 262 266 320 248 242 242 232 231 216
166 168 162 156 155 137 148 138 91 116 195 167 147 170 143 152 145 125 146 91 139 125 164 203 174 178 189 173 191 155 78 42 64 94 265 197 178 246 201 207 240 243 236 215 196
166 167 160 147 154 136 134 125 138 159 152 173 162 164 155 141 110 147 175 165 159 136 182 143 228 221 143 129 130 170 142 171 249 184 224 73 155 242 257 242 227 252 259 218 175
165 156 150 155 140 140 144 145 129 140 176 166 131 142 153 136 74 161 147 190 226 139 125 169 213 172 189 187 173 192 158 167 188 190 190 87 226 250 232 273 255 271 273 147 154
150 153 151 147 143 145 154 182 187 165 157 129 100 152 148 197 139 144 193 194 185 186 154 158 213 321 189 168 149 186 193 160 101 12 80 204 287 297 248 265 257 241 187 190 180
154 144 149 149 148 153 166 171 140 151 128 144 148 153 176 179 139 176 172 196 196 180 209 188 160 323 233 163 137 179 160 176 18 132 234 282 277 238 267 236 220 217 204 192 184
156 146 152 141 142 158 188 185 145 183 141 142 149 145 168 177 161 184 184 238 184 177 171 143 111 224 176 213 158 136 186 109 123 153 179 190 254 218 227 214 216 216 205 189 182
151 158 155 152 156 182 185 166 152 159 202 125 102 106 165 165 143 172 189 178 171 145 165 161 113 148 207 238 124 332 182 178 177 222 244 145 253 238 236 226 214 206 191 178 169
140 126 165 166 172 185 155 186 156 148 165 153 130 153 140 156 132 180 175 185 170 163 165 179 99 76 2 356 9 214 210 162 110 73 200 193 248 340 288 282 265 211 185 167 168
121 145 151 187 77 172 172 187 139 233 149 128 117 108 119 162 27 173 151 194 194 176 151 117 136 168 202 212 135 195 189 175 139 164 173 233 221 282 265 284 292 238 173 166 174
162 162 155 167 195 177 179 176 154 166 204 179 105 158 150 143 119 155 142 132 73 160 142 133 171 146 78 320 120 185 178 167 190 217 193 234 200 237 217 224 252 216 170 166 176
156 153 152 171 158 170 179 197 166 126 133 187 144 163 158 152 186 166 124 179 171 126 185 180 181 118 18 22 193 163 195 201 210 218 231 96 249 232 210 135 175 205 179 195 196
298 336 152 159 165 171 190 180 175 127 9 132 138 117 116 161 111 127 72 112 155 160 181 182 130 120 225 19 94 308 209 211 219 218 201 218 232 173 205 212 208 207 203 208 207